www.pogodaiklimat.ru

Погода и климат >> Архив погоды >> Мексика >> Monclova


ПОГОДА в Monclova

  • Прогноз погоды в Monclova
  • Монитор погоды в Monclova
  • Климат города

АРХИВ ПОГОДЫ в Monclova

Время (UTC), дата Ветер
(напр.,м/с)
 
Видим.   Явления Облачность Т
(С)
Тd
(С)
f
(%)
Тe
(С)
Тes
(С)
Комфортность P
(гПа)
Po
(гПа)
Тmin
(С)
Tmax
(С)
R
(мм)
R24
(мм)
S
(см)
06 8.08 ЮВ 2 4000 м ясно +30.8 +16.8 43 +34 +34 очень
душно
1013.6 947.2 +25.0 +38.5
09 8.08 ЮЗ 3 4000 м ясно +28.6 +18.6 55 +34 +34 очень
душно
1012.5 945.9
12 8.08 Ю 2 8000 м ясно +26.2 +18.1 61 +31 +31 очень
душно
1014.2 946.9 +25.8 +38.5
15 8.08 ЮВ 1 12 км ясно +29.4 +19.2 54 +35 +44 очень
душно
1017.1 949.4
18 8.08 С 1 12 км ясно +34.6 +19.0 40 +40 +64 опасность
солнечного
удара
1017.0 949.3 +25.0 +35.0
21 8.08 СВ 1 12 км 5/5 600 м
[Cu med, cong]
+38.8 +16.8 28 +41 +50 опасность
перегрева
1012.7 945.8
00 9.08 СВ 2 12 км 5/5 600 м
[Cu med, cong]
+38.6 +18.0 30 +42 +43 опасность
перегрева
1009.9 943.8 +25.0 +40.2
03 9.08 В 2 4000 м ясно +33.2 +17.0 38 +36 +36 очень
душно
1010.3 944.5
12 9.08 Ю 2 4000 м ясно +25.8 +19.2 67 +31 +31 очень
душно
1013.2 946.5 +25.5 +40.2
15 9.08 СВ 1 12 км ясно +29.2 +19.0 54 +35 +44 очень
душно
1017.2 949.4
18 9.08 СВ 2 12 км ясно +33.8 +18.8 41 +39 +59 опасность
солнечного
удара
1016.9 949.2 +25.0 +34.5
21 9.08 С 3 12 км 4/4 600 м
[Cu med, cong]
+37.0 +18.4 34 +41 +49 опасность
перегрева
1013.6 946.5
00 10.08 В 3 12 км 6/6 300 м
[Cu med, cong]
+35.0 +15.7 32 +37 +38 очень
душно
1012.2 945.5 +25.0 +38.5
03 10.08 Ю 2 4000 м ясно +31.0 +15.6 39 +33 +33 душно 1012.4 946.0
06 10.08 Ю 2 4000 м ясно +29.0 +16.0 45 +32 +32 душно 1013.3 946.7 +25.0 +38.5
09 10.08 Ю 3 4000 м ясно +27.4 +16.1 50 +31 +31 душно 1014.6 947.5
12 10.08 Ю 2 4000 м ясно +25.0 +16.0 57 +28 +28 жарко 1015.1 947.5 +24.5 +38.5
15 10.08 Ю 1 12 км ясно +27.0 +17.4 56 +31 +40 душно 1016.4 948.4
18 10.08 СВ 1 12 км ясно +33.8 +18.5 40 +38 +62 опасность
солнечного
удара
1015.8 948.0 +24.5 +34.6
00 11.08 В 3 12 км 6/6 300 м
[Cu med, cong]
+37.0 +15.8 29 +39 +40 очень
душно
1009.8 943.6 +24.5 +39.0
03 11.08 Ю 2 4000 м 8/0 2000 м
[Ac lent]
+33.2 +16.3 36 +36 +36 очень
душно
1009.9 944.0
06 11.08 ЮВ 3 4000 м ясно +28.4 +18.3 54 +33 +33 очень
душно
1015.1 948.8 +24.5 +39.0
09 11.08 ЮВ 3 4000 м ясно +26.0 +18.8 65 +31 +31 очень
душно
1013.7 946.9
12 11.08 СВ 2 8000 м ясно +25.0 +19.3 71 +30 +30 душно 1014.5 947.1 +24.4 +39.0
15 11.08 В 1 12 км 5/0 1500 м
[Ac As]
+27.4 +19.8 63 +33 +39 очень
душно
1017.8 949.6
18 11.08 С 2 12 км 8/8 600 м
[Cu med, cong]
+32.4 +20.1 48 +39 +43 очень
душно
1017.5 949.3 +24.0 +33.0
21 11.08 СВ 2 12 км 8/8 600 м
[Cu med, cong]
+33.6 +20.6 47 +41 +44 опасность
перегрева
1014.5 946.9
00 12.08 В 2 12 км 9/9 200 м
[Frnb]
+30.8 +19.9 52 +37 +37 очень
душно
1012.8 945.7 +24.0 +33.5
03 12.08 Ю 2 4000 м 8/0 2000 м
[Ac und]
+28.7 +18.9 55 +34 +34 очень
душно
1014.5 947.5
06 12.08 СВ 2 4000 м 8/0 2000 м
[Ac und]
+26.8 +20.0 66 +33 +33 очень
душно
1015.8 948.6 +24.0 +35.5
09 12.08 В 1 4000 м 8/0 2000 м
[Ac und]
+24.6 +20.4 77 +30 +30 очень
душно
1017.3 949.5
12 12.08 СВ 1 4000 м 5/0 2000 м
[Ac und]
+23.5 +20.5 83 +29 +29 душно 1017.4 949.2 +23.0 +35.5
15 12.08 В 3 12 км 8/0 2000 м
[Ac lent]
+25.2 +20.4 75 +31 +34 очень
душно
1017.7 949.1
18 12.08 СЗ 1 12 км 8/4 600 м
[Cu med, cong Ac As]
+31.8 +20.7 52 +39 +47 очень
душно
1017.6 949.1 +22.8 +32.5
21 12.08 ЮЗ 1 10 км слабая морось 10/10 600 м
[Frnb]
+26.2 +22.4 80 +34 +34 очень
душно
1015.5 947.4 1
00 13.08 З 2 12 км 10/4 600 м
[Frnb Ac As]
+24.4 +21.6 84 +31 +31 очень
душно
1015.5 947.4 2
03 13.08 СЗ 2 4000 м 8/0 2000 м
[Ac und]
+24.0 +21.6 86 +31 +31 очень
душно
1015.5 947.4
06 13.08 З 1 4000 м 5/0 2000 м
[Ac As]
+23.2 +21.5 90 +31 +31 очень
душно
1016.9 948.4 +22.8 +33.5
09 13.08 С 2 4000 м 10/3 300 м
[Frnb Ac und]
+23.0 +21.3 90 +31 +31 очень
душно
1016.8 948.0
12 13.08 С 1 4000 м 10/8 300 м
[Frnb Ac und]
+23.0 +21.3 90 +31 +31 очень
душно
1016.9 948.0 +22.5 +33.5
15 13.08 С 1 12 км 5/4 600 м
[Cu med, cong Ac lent]
+25.0 +21.1 79 +32 +36 очень
душно
1017.5 948.5
18 13.08 В 2 12 км ясно +30.4 +21.0 57 +38 +58 опасность
солнечного
удара
1017.3 948.6 +22.6 +34.4
21 13.08 В 3 10 км 10/6 600 м
[Cu med, cong Ac lent]
+32.0 +20.6 51 +39 +40 очень
душно
1014.1 946.2
00 14.08 Ю 2 10 км слабая морось 10/10 300 м
[Frnb]
+23.6 +19.9 80 +29 +29 душно 1014.6 946.8 2
03 14.08 З 2 4000 м слабый дождь 9/9 300 м
[Frnb]
+22.8 +20.5 87 +30 +30 очень
душно
1014.1 946.2 1
06 14.08 Ю 2 4000 м ясно +23.0 +20.7 87 +30 +30 очень
душно
1015.6 947.3 +22.6 +34.0
09 14.08 ЮВ 2 4000 м ясно +22.4 +20.4 88 +29 +29 очень
душно
1014.2 945.4
12 14.08 ЮВ 3 4000 м 8/0 2000 м
[Ac lent]
+23.0 +19.9 83 +30 +30 очень
душно
1014.2 945.3 +22.6 +34.0
15 14.08 СВ 1 12 км 8/0 1500 м
[Ac As]
+24.4 +20.7 80 +30 +34 очень
душно
1016.0 947.0
18 14.08 СВ 1 12 км 5/0
[Ac As]
+30.4 +21.0 57 +38 +53 опасность
солнечного
удара
1015.9 947.3 +22.2 +31.0
21 14.08 СВ 1 12 км 5/5 600 м
[Cu med, cong]
+34.6 +19.6 41 +40 +49 очень
душно
1012.7 945.8
00 15.08 СВ 2 12 км 4/4 600 м
[Cu med, cong]
+37.0 +18.1 33 +41 +42 опасность
перегрева
1009.9 943.0 +22.2 +38.2
03 15.08 В 1 4000 м ясно +32.0 +15.8 38 +35 +35 очень
душно
1010.2 943.8

 

Местоположение метеостанции Monclova (Мексика): широта 26.88 долгота -101.40 высота над уровнем моря 615 м.

В архиве по умолчанию представлена погода в Monclova за последнюю неделю. Архивные данные за месяц целиком и за предыдущие месяцы, начиная с января 2011 года, Вы можете получить, выбрав интересующий диапазон дат из раскрывающегося списка и нажав кнопку "Ввод!".


*Определитесь, кто Вы:
робот инопланетянин человек

Внимание! Время в таблицах - всемирное. Для получения местного времени необходимо прибавить поправку, которая в Monclova равна -6 ч.

Смотрите также архив погоды в соседних городах и на ближайших метеорологических станциях:

Погода в Monterrey (Мексика) (168 км)
Погода в Saltillo (Мексика) (173 км)
Погода в Piedras Negras (Мексика) (221 км)
Погода в Torreon (Мексика) (250 км)
Погода в Hidalgo del Parral (Мексика) (417 км)
Погода в Ciudad Victoria (Мексика) (418 км)
Погода в Sombrerete (Мексика) (424 км)
Погода в Durango (Мексика) (450 км)
Погода в Tepehuanes (Мексика) (464 км)
Погода в Zacatecas (Мексика) (469 км)

Пояснения к столбцам:

Ветер - указаны скорость ветра в м/с - средняя за 10 мин, порывы в срок и между сроками (в фигурных скобках) и направление, откуда дует ветер: С - северный, СВ - северо-восточный, В - восточный, ЮВ - юго-восточный, Ю - южный, ЮЗ - юго-западный, З - западный, СЗ - северо-западный.
Видимость - горизонтальная дальность видимости в метрах или километрах. При видимости от 1 до 10 км при отсутствии осадков обычно наблюдается дымка, при ухудшении видимости до 1 км и менее - туман. В сухую погоду видимость может ухудшаться дымом, пылью или мглою.
Явления - указаны атмосферные явления, наблюдавшиеся в срок или в последний час перед сроком; фигурными скобками обозначены явления, наблюдавшиеся между сроками (за 1-3 часа до срока); квадратными скобками обозначены град или гололедные отложения с указанием их диаметра в мм.
Облачность - указаны через наклонную черту общая и нижняя облачность в баллах и высота нижней границы облаков в метрах; квадратными скобками обозначены формы облаков: Ci - перистые, Cs - перисто-слоистые, Cc - перисто-кучевые, Ac - высококучевые, As - высокослоистые, Sc - слоисто-кучевые, Ns - слоисто-дождевые, Cu - кучевые, Cb - кучево-дождевые. Подробнее классификацию облаков см. в Атласе облаков (PDF).
T - Температура воздуха - температура, измеренная на высоте 2 м над землей.
Td - Температура точки росы - температура, при понижении до которой содержащийся в воздухе водяной пар достигнет насыщения.
f - Относительная влажность воздуха - влажноcть воздуха, измеренная на высоте 2 м над землей.
Te - Эффективная температура - температура, которую ощущает одетый по сезону человек в тени. Характеристика душности погоды. При расчете учитывается влияние влажности воздуха и скорости ветра на теплоощущения человека.
Tes - Эффективная температура на солнце - температура, которую ощущает человек, с поправкой на солнечный нагрев. Характеристика знойности погоды. Зависит от высоты солнца над горизонтом, облачности и скорости ветра. Ночью, в пасмурную погоду, а также при ветре 12 м/с и более поправка равна нулю.
P - Атмосферное давление - приведенное к уровню моря атмосферное давление.
Po - Атмосферное давление - измеренное на уровне метеостанции атмосферное давление.
Tmin - Минимальная температура - минимум температуры воздуха на высоте 2 м над землей.
Tmax - Максимальная температура - максимум температуры воздуха на высоте 2 м над землей.
R - Количество осадков - Количество выпавших осадков за период времени, мм. При наведении курсора мыши на число - период времени, за который выпало указанное количество осадков.
R24 - Количество осадков - Количество выпавших осадков за 24 часа, мм.
S - Снежный покров - Высота снежного покрова, см. При наведении курсора мыши на число - состояние снежного покрова и степень покрытия местности в баллах.